PulseSat

PulseSat

MOLNIYA 2-10

Last updated on April 19, 2019, 2:59 a.m. UTC

1 07376U 74056A   19108.46088745  .00001288  00000-0  00000+0 0  9994
2 07376  63.4379 214.0164 6937598 294.5004  10.3563  2.01138884327157
UTC
Height (km)
Latitude
Longitude
Inclination
Orbital Period

Next 30 passes for location: Hong Kong

Rise time Rise Azimuth (degrees) Set time Set Azimuth (degrees) Duration Max altitude (degrees)

No matching passes for this satellites

PulseSat

PulseSat is the new satellites software and hardware trackering solution by Pulsely.
Satellite Two Line Element Set source: US Air Force Space Command

Download PulseSat for iOS
© 2017 Pulsely Limited